Location: Bagnara
(41.0500°N, 14.7833°E)
Time: 16:34:25
(UTC+00:00)

FALCON 9 DEB - Pass Details

Date: 30 October 2021
Orbit: 344 x 354 km, 53.0° (Epoch: 29 November)

Event Time Altitude Azimuth Distance (km) Brightness Sun altitude
Rises 17:49:09 0° 285° (WNW) 2,174 8.0 -21.3°
Reaches altitude 10° 17:52:06 10° 318° (NW) 1,339 6.1 -21.8°
Enters shadow 17:53:20 12° 342° (NNW) 1,220 5.6 -22.1°
